Regional Weather Roundup
Issued by NWS Jackson, KY

Home | Current Version | Previous Version | Graphics & Text | Print | Product List | Glossary On
Versions: 1 2 3 4 5 6 7 8 9 10 11 12 13 14 15 16 17 18 19 20 21 22 23 24 25 26 27 28 29 30 31 32 33 34 35 36 37 38 39 40 41 42 43 44 45 46 47 48 49 50
000
ASUS43 KJKL 270711
RWRJKL

EAST KENTUCKY HOURLY WEATHER ROUNDUP
NATIONAL WEATHER SERVICE JACKSON KY
300 AM EDT WED AUG 27 2014

NOTE: "FAIR" INDICATES FEW OR NO CLOUDS BELOW 12,000 FEET WITH
NO SIGNIFICANT WEATHER AND/OR OBSTRUCTIONS TO VISIBILITY.

* THESE REPORTS ARE NOT UNDER NWS QUALITY CONTROL AND MAY NOT
  REPORT WEATHER SUCH AS PRECIPITATION AND FOG.

KYZ079-080-083-085-087-088-110-112-115-119-120-270800
...EASTERN KENTUCKY...

CITY           SKY/WX    TMP DP  RH WIND       PRES   REMARKS
JACKSON        CLEAR     68  61  78 CALM      30.11S
LONDON         CLEAR     65  61  87 CALM      30.11F
SOMERSET*      CLEAR     63  63 100 CALM      30.11S
MONTICELLO*    CLEAR     62  62 100 CALM      30.11F FOG
WILLIAMSBURG*  CLEAR     64  64 100 CALM      30.11S
MIDDLESBORO*   CLEAR     62  62  97 CALM      30.12F
HARLAN APT*    CLOUDY    64  63  94 MISG      30.13F VSB 1/4
HAZARD APT*    PTSUNNY   63  63 100 CALM      30.11  FOG
BLACK MTN*       N/A     59  54  82 S2          N/A
PIKEVILLE APT* CLEAR     64  63  94 S3        30.11F
BIG SANDY*     SUNNY     63  63  99 CALM      30.12R
MOREHEAD APT*  PTSUNNY   68  63  83 CALM      30.13S
$$

KYZ035-036-041-042-044-050-067-078-099-270800
...CENTRAL KENTUCKY...

CITY           SKY/WX    TMP DP  RH WIND       PRES   REMARKS
MT STERLING*   CLEAR     66  64  94 CALM      30.13R
FLEMING/MASON* CLEAR     68  64  88 CALM      30.12F
DANVILLE*      CLEAR     64  63  94 CALM      30.12R
RICHMOND*      CLEAR     64  63  94 CALM      30.10S
LEXINGTON      LGT RAIN  72  65  78 CALM      30.11S
FRANKFORT      CLEAR     70  67  90 CALM      30.09F
$$

KYZ091>093-OHZ055-061-077-WVZ005-015-034-035-042-270800
...SOUTHERN OHIO/WEST VIRGINIA...

CITY           SKY/WX    TMP DP  RH WIND       PRES   REMARKS
COVINGTON      PTCLDY    73  68  84 CALM      30.10S
COLUMBUS       PTCLDY    75  67  76 CALM      30.09S
DAYTON         PTCLDY    71  67  87 CALM      30.11S
WILMINGTON     CLEAR     69  65  86 CALM      30.10F
HUNTINGTON     CLEAR     64  63  96 CALM      30.09S
CHARLESTON     PTCLDY    63  63 100 CALM      30.10S
PINEVILLE*     CLEAR     58  58 100 MISG      30.19F
BECKLEY        PTCLDY    59  54  83 CALM      30.17F
BLUEFIELD      PTCLDY    63  55  75 SE5       30.19F
$$

VAZ002-007-008-TNZ017-027-036-066-071-270800
...SOUTHWEST VIRGINIA/EAST TENNESSEE...

CITY           SKY/WX    TMP DP  RH WIND       PRES   REMARKS
WISE*          CLEAR     61  54  77 CALM      30.18F
JONESVILLE*      N/A     61  61 100 CALM      30.14F
ABINGDON*      CLEAR     60  56  86 E6        30.16F
BRISTOL        CLEAR     59  57  93 CALM      30.13F
KNOXVILLE      PTCLDY    68  65  90 CALM      30.08F
OAK RIDGE      PTCLDY    67  65  93 CALM      30.10F
CROSSVILLE     CLEAR     66  63  90 CALM      30.14F FOG
NASHVILLE      CLEAR     73  70  90 CALM      30.08S
$$

...KEY TO REMARKS...
VSB - VISIBILITY IN MILES
WCI - WIND CHILL INDEX
HX  - HEAT INDEX

$$


USA.gov is the U.S. government's official web portal to all federal, state and local government web resources and services.